Location: Franzen
(48.6167°N, 15.3833°E)
Time: 09:46:47
(UTC+00:00)

Cosmos 1709 Rocket - Pass Details

Date: 22 April 2021
Orbit: 947 x 1002 km, 82.9° (Epoch: 16 May)

Event Time Altitude Azimuth Distance (km) Brightness Sun altitude
Rises 21:48:49 0° 350° (N) 3,679 8.3 -27.0°
Reaches altitude 10° 21:51:20 10° 350° (N) 2,720 7.3 -27.2°
Maximum altitude 21:57:34 84° 263° (W) 970 3.9 -27.5°
Enters shadow 21:58:10 74° 194° (SSW) 999 3.8 -27.5°
